[[{"header":{"parameterUnit":"m.s-1","parameterCategory":1,"la1":30.2991,"la2":30.254,"lo1":-89.0895,"lo2":-89.0444,"dy":0.0017,"dx":0.0017,"nx":28,"ny":28,"refTime":"2025-02-12T09:00:00:Z","depth":0,"parameterNumber":2,"parameterNumberName":"U-component_of_WINDS"},"data":[0,0,0,0,0,0,0,0,0,0,0,0,0,0,0,0,0,0,0,0,0,0,0,0,0,0,0,0,0,0,0,0,0,0,0,0,0,0,0,0,0,0,0,0,0,0,0,0,0,0,0,0,0,0,0,0,0,0,0.0227,0.0227,0,0.024,0.024,0.024,0.026,0.026,0.026,0.0261,0.0273,0.0273,0.0273,0,0,0,0,0,0,0,0,0,0,0,0,0,0.022,0.022,0.0227,0.0227,0.0227,0.024,0.024,0.024,0.026,0.026,0.0261,0.0261,0.0273,0.0273,0.0273,0,0,0,0,0,0,0,0,0,0,0,0,0,0.0227,0.022,0.0227,0.0239,0.024,0.024,0.024,0.024,0.026,0.026,0.0261,0.0261,0.0273,0.0273,0.0273,0.0262,0,0,0.0273,0.0273,0,0,0,0,0,0,0,0,0.0227,0.0227,0.0237,0.0238,0.0239,0.0249,0.0242,0.0247,0.0259,0.0252,0.0261,0.0261,0.0264,0.0265,0.0266,0.0263,0.0263,0.0273,0.0273,0.0273,0.0273,0,0,0,0,0,0,0,0.0226,0.0227,0.0232,0.0237,0.0238,0.0243,0.0245,0.0243,0.0255,0.0253,0.0254,0.0255,0.0265,0.0266,0.0267,0.0263,0.0273,0.0273,0.0273,0.0273,0.0253,0.0252,0,0,0,0,0,0,0.0224,0.0226,0.0232,0.0232,0.0234,0.0243,0.0245,0.0245,0.0255,0.0257,0.0255,0.0256,0.0266,0.0267,0.0267,0.0256,0.0273,0.0273,0.0273,0.0253,0.0253,0.0252,0,0,0,0,0,0,0.0224,0.0224,0.0231,0.023,0.0231,0.0243,0.0243,0.0245,0.0246,0.0257,0.0259,0.0254,0.0266,0.0267,0.0264,0.0257,0.0273,0.0273,0.0254,0.0253,0.0253,0.0233,0,0,0,0,0,0,0.0223,0.0224,0.022,0.0229,0.0231,0.0227,0.0242,0.0245,0.0246,0.0248,0.0256,0.0258,0.0267,0.0263,0.0264,0.0257,0.0273,0.0255,0.0254,0.0253,0.0234,0.0231,0.0229,0,0,0,0,0,0.0223,0.0213,0.0219,0.022,0.0226,0.0226,0.0227,0.0238,0.0246,0.0242,0.0249,0.0258,0.0258,0.0263,0.0263,0.0256,0.0255,0.0254,0.0253,0.0235,0.0232,0.0229,0,0,0,0,0,0,0.0201,0.0214,0.0222,0.0214,0.0219,0.023,0.0225,0.0234,0.0236,0.0238,0.025,0.0252,0.0247,0.0251,0.0257,0.0247,0.0258,0.0257,0.0244,0.0241,0.0239,0.0238,0.0273,0,0,0,0,0,0.0196,0.0195,0.0207,0.0199,0.0202,0.0213,0.0213,0.0221,0.0227,0.0229,0.0235,0.024,0.0241,0.0242,0.0243,0.0235,0.0238,0.0231,0.0228,0.0226,0.0225,0.0222,0.0219,0.0248,0.0248,0.0248,0,0,0.0184,0.0191,0.019,0.0195,0.02,0.0199,0.0214,0.0213,0.0212,0.0228,0.0225,0.0231,0.0237,0.0232,0.0229,0.0235,0.0218,0.0225,0.0223,0.0223,0.022,0.0218,0.0215,0.0248,0.0248,0.0248,0,0,0.0162,0.0168,0.0163,0.0167,0.0175,0.0183,0.0182,0.0191,0.0196,0.0193,0.0205,0.0206,0.0207,0.0211,0.0213,0.0196,0.0205,0.0196,0.0183,0.018,0.0178,0.0176,0.017,0.0167,0.0195,0.0195,0.0195,0,0.0147,0.0146,0.0159,0.0157,0.0159,0.0175,0.017,0.0174,0.0181,0.0182,0.0189,0.0192,0.0197,0.0193,0.0189,0.0191,0.019,0.0195,0.0177,0.0175,0.0173,0.0168,0.0166,0.0194,0.0194,0.0194,0.0194,0,0.0127,0.0127,0.0122,0.0129,0.0131,0.0128,0.014,0.0141,0.0149,0.0156,0.0154,0.0162,0.0165,0.0165,0.0173,0.0163,0.0166,0.0175,0.0186,0.0169,0.0165,0.0162,0.0192,0.0192,0.0193,0.0193,0,0,0.0091,0.0106,0.0104,0.0109,0.0119,0.0119,0.0117,0.0121,0.0121,0.0126,0.0125,0.0127,0.0135,0.0138,0.0147,0.0144,0.0131,0.0153,0.0153,0.0149,0.0121,0.0115,0.0112,0.0137,0.0137,0.0136,0.0121,0,0.0071,0.0068,0.008,0.0074,0.0075,0.009,0.0089,0.0095,0.0102,0.0104,0.0112,0.0113,0.0124,0.0126,0.0124,0.0133,0.0125,0.0134,0.0136,0.0136,0.0134,0.0109,0.0102,0.0087,0.0119,0.0119,0.0118,0,0.0047,0.0052,0.0046,0.0058,0.0059,0.0057,0.0063,0.0064,0.0072,0.0078,0.0082,0.0092,0.0091,0.0102,0.0102,0.0108,0.011,0.0114,0.0114,0.0114,0.0126,0.0109,0.0082,0.008,0.0115,0.0116,0.0116,0,0.0021,0.0026,0.0024,0.0027,0.0041,0.0039,0.0045,0.0054,0.0056,0.0061,0.0063,0.0068,0.007,0.0074,0.0086,0.0093,0.0084,0.0096,0.0089,0.0089,0.0086,0.0086,0.0059,0.0088,0.0088,0.0088,0.0088,0,-0.0002,-0.0006,0.0013,0.0011,0.0008,0.0022,0.0018,0.0026,0.0033,0.0034,0.0048,0.0048,0.0064,0.0066,0.0075,0.0074,0.0075,0.0079,0.0082,0.0078,0.0077,0.0079,0.008,0.0087,0.0087,0.0087,0.0087,0,-0.0032,-0.0019,-0.0021,-0.0007,-0.0004,-0.0007,0.0005,0.0004,0.0013,0.0014,0.0015,0.0029,0.0032,0.0045,0.0051,0.0057,0.0053,0.0058,0.0051,0.0052,0.0045,0.0045,0.0017,0.0015,0.0045,0.0045,0.0044,0,-0.0048,-0.005,-0.0036,-0.0035,-0.003,-0.0027,-0.0024,-0.001,-0.0007,0.0003,0.0001,0.0006,0.001,0.0015,0.0026,0.0031,0.0036,0.0026,0.0037,0.0034,0.0037,0.0036,0.0037,0.0024,0.0023,0.0023,0.0023,0,-0.0077,-0.0071,-0.0067,-0.006,-0.0057,-0.0052,-0.0045,-0.0045,-0.0028,-0.0026,-0.0022,-0.0018,-0.0011,-0.0006,0.0001,0.0007,0.0018,0.002,0.0018,0.0014,0.001,0.0013,0.0044,0.002,0.002,0.002,0.0021,0.0021,-0.0101,-0.0102,-0.0092,-0.0087,-0.0081,-0.0075,-0.0074,-0.0064,-0.0061,-0.0053,-0.0045,-0.0042,-0.0032,-0.0021,-0.0015,-0.0012,-0.0006,-0.0008,-0.0009,-0.001,-0.0011,0.001,-0.0011,-0.0011,-0.0011,-0.001,-0.001,0,-0.0129,-0.0122,-0.0118,-0.0109,-0.0105,-0.0094,-0.0086,-0.0084,-0.0081,-0.0073,-0.0068,-0.0063,-0.0058,-0.0046,-0.0039,-0.0039,-0.0034,-0.0038,-0.0038,-0.0036,-0.0017,-0.0016,-0.0042,-0.0042,-0.0042,-0.0042,-0.0042,-0.0042,-0.0144,-0.0145,-0.0136,-0.0133,-0.0125,-0.0122,-0.0118,-0.0112,-0.0105,-0.0099,-0.0095,-0.0087,-0.0077,-0.0069,-0.0063,-0.006,-0.0058,-0.0064,-0.0059,-0.0041,-0.0038,-0.0035,-0.0035,-0.0063,-0.0064,-0.0078,-0.0079,-0.0079]},{"header":{"parameterUnit":"m.s-1","parameterCategory":1,"la1":30.2991,"la2":30.254,"lo1":-89.0895,"lo2":-89.0444,"dy":0.0017,"dx":0.0017,"nx":28,"ny":28,"refTime":"2025-02-12T09:00:00:Z","depth":0,"parameterNumber":3,"parameterNumberName":"V-component_of_WINDS"},"data":[0,0,0,0,0,0,0,0,0,0,0,0,0,0,0,0,0,0,0,0,0,0,0,0,0,0,0,0,0,0,0,0,0,0,0,0,0,0,0,0,0,0,0,0,0,0,0,0,0,0,0,0,0,0,0,0,0,0,-6.0721,-6.0722,0,-6.0797,-6.0798,-6.0799,-6.0777,-6.0775,-6.0774,-6.0772,-6.0844,-6.0847,-6.0851,0,0,0,0,0,0,0,0,0,0,0,0,0,-6.0554,-6.0558,-6.0721,-6.0722,-6.0723,-6.0797,-6.0798,-6.0799,-6.0777,-6.0775,-6.0774,-6.0772,-6.0843,-6.0847,-6.0851,0,0,0,0,0,0,0,0,0,0,0,0,0,-6.0628,-6.0559,-6.0721,-6.0721,-6.0722,-6.0797,-6.0798,-6.0799,-6.0778,-6.0775,-6.0773,-6.0771,-6.0842,-6.0847,-6.0852,-6.0928,0,0,-6.0867,-6.0869,0,0,0,0,0,0,0,0,-6.0624,-6.0634,-6.072,-6.0722,-6.0723,-6.0775,-6.0765,-6.0842,-6.0778,-6.0756,-6.0772,-6.077,-6.0823,-6.0829,-6.0848,-6.0932,-6.0935,-6.0867,-6.087,-6.0872,-6.0874,0,0,0,0,0,0,0,-6.0619,-6.0631,-6.0751,-6.0722,-6.0723,-6.0717,-6.0724,-6.078,-6.0801,-6.0758,-6.0757,-6.0766,-6.0823,-6.0843,-6.085,-6.0936,-6.0867,-6.0872,-6.0875,-6.0877,-6.1088,-6.1091,0,0,0,0,0,0,-6.0614,-6.0627,-6.0749,-6.0753,-6.0667,-6.0721,-6.073,-6.0761,-6.0801,-6.0805,-6.0768,-6.0765,-6.0836,-6.0844,-6.0852,-6.0946,-6.0872,-6.0877,-6.088,-6.1086,-6.1089,-6.1092,0,0,0,0,0,0,-6.061,-6.0625,-6.0746,-6.069,-6.0705,-6.0727,-6.0761,-6.0763,-6.0784,-6.0808,-6.0812,-6.0786,-6.0834,-6.0845,-6.0911,-6.0949,-6.0879,-6.0884,-6.1083,-6.1087,-6.109,-6.1135,0,0,0,0,0,0,-6.0605,-6.0624,-6.0654,-6.0691,-6.0708,-6.0804,-6.0763,-6.0766,-6.0793,-6.079,-6.0826,-6.0829,-6.0833,-6.0903,-6.0916,-6.0954,-6.0888,-6.1079,-6.1085,-6.1089,-6.113,-6.114,-6.1148,0,0,0,0,0,-6.0599,-6.0661,-6.0655,-6.067,-6.0746,-6.0806,-6.0816,-6.0821,-6.0796,-6.0827,-6.0843,-6.0828,-6.0942,-6.091,-6.0924,-6.0964,-6.1077,-6.1083,-6.1089,-6.1126,-6.1138,-6.1148,0,0,0,0,0,0,-6.0625,-6.0666,-6.066,-6.0736,-6.0768,-6.0803,-6.0841,-6.0833,-6.0871,-6.0866,-6.087,-6.0878,-6.0945,-6.0961,-6.0924,-6.1042,-6.1006,-6.1015,-6.1029,-6.1041,-6.105,-6.1045,-6.0892,0,0,0,0,0,-6.064,-6.0687,-6.072,-6.0783,-6.08,-6.0818,-6.0844,-6.0846,-6.0879,-6.0891,-6.0912,-6.0943,-6.0986,-6.1014,-6.1055,-6.1132,-6.114,-6.1167,-6.1176,-6.1183,-6.1191,-6.1235,-6.1248,-6.1111,-6.1111,-6.1111,0,0,-6.0671,-6.0699,-6.0728,-6.0789,-6.0815,-6.0863,-6.0829,-6.088,-6.0916,-6.0898,-6.0963,-6.0979,-6.1014,-6.1086,-6.1119,-6.1101,-6.1231,-6.1191,-6.1197,-6.12,-6.1242,-6.1255,-6.1267,-6.1115,-6.1115,-6.1114,0,0,-6.0751,-6.0777,-6.0834,-6.0861,-6.0901,-6.0913,-6.0927,-6.0963,-6.0974,-6.1039,-6.1028,-6.1069,-6.1143,-6.1169,-6.1192,-6.1285,-6.1274,-6.1298,-6.1345,-6.1388,-6.1399,-6.1408,-6.1443,-6.1455,-6.1306,-6.1306,-6.1306,0,-6.0783,-6.0857,-6.0864,-6.0918,-6.0946,-6.0935,-6.0993,-6.1018,-6.1068,-6.1087,-6.1067,-6.1162,-6.1184,-6.1263,-6.1286,-6.1305,-6.132,-6.1294,-6.1397,-6.1407,-6.1416,-6.1449,-6.1461,-6.1309,-6.1308,-6.1308,-6.1308,0,-6.0896,-6.0947,-6.0988,-6.104,-6.1072,-6.1127,-6.1142,-6.1174,-6.1173,-6.1187,-6.1254,-6.1281,-6.1328,-6.1347,-6.1345,-6.1427,-6.1415,-6.1396,-6.136,-6.1431,-6.1463,-6.1475,-6.1313,-6.1312,-6.1311,-6.131,0,0,-6.0993,-6.1051,-6.1066,-6.1091,-6.1135,-6.1174,-6.1229,-6.1278,-6.1305,-6.134,-6.1387,-6.1451,-6.1435,-6.1461,-6.1462,-6.15,-6.1574,-6.1476,-6.1477,-6.1495,-6.1667,-6.1681,-6.1696,-6.1567,-6.1569,-6.1571,-6.1664,0,-6.1078,-6.1178,-6.1187,-6.1276,-6.1323,-6.1315,-6.1363,-6.1395,-6.141,-6.1452,-6.1467,-6.1513,-6.1488,-6.1504,-6.154,-6.1557,-6.1609,-6.1551,-6.1609,-6.1611,-6.1602,-6.1712,-6.1727,-6.1813,-6.1676,-6.1678,-6.168,0,-6.119,-6.1233,-6.1327,-6.1368,-6.1388,-6.1432,-6.1478,-6.1518,-6.1555,-6.1563,-6.1594,-6.1591,-6.1647,-6.1609,-6.1686,-6.1647,-6.1671,-6.1684,-6.1687,-6.1693,-6.165,-6.1721,-6.1841,-6.1854,-6.1699,-6.1697,-6.1696,0,-6.1254,-6.1334,-6.1402,-6.1423,-6.1471,-6.1502,-6.1523,-6.1558,-6.1587,-6.1627,-6.1647,-6.1692,-6.1716,-6.1751,-6.176,-6.1732,-6.1838,-6.18,-6.1846,-6.1846,-6.1869,-6.1867,-6.1995,-6.1884,-6.1883,-6.1883,-6.1883,0,-6.1348,-6.1407,-6.1431,-6.1473,-6.1538,-6.1548,-6.1612,-6.1631,-6.1663,-6.1707,-6.1702,-6.1743,-6.1753,-6.1796,-6.1803,-6.1867,-6.1878,-6.1886,-6.1887,-6.1887,-6.1886,-6.1903,-6.1898,-6.1887,-6.1886,-6.1885,-6.1885,0,-6.143,-6.1449,-6.1522,-6.1564,-6.1575,-6.1622,-6.1656,-6.1696,-6.1711,-6.1768,-6.1781,-6.1804,-6.1855,-6.1868,-6.1928,-6.1933,-6.2009,-6.2004,-6.1997,-6.1997,-6.2043,-6.2039,-6.2186,-6.2206,-6.2081,-6.2082,-6.2083,0,-6.1489,-6.1535,-6.1582,-6.1613,-6.1637,-6.1686,-6.1717,-6.1729,-6.1761,-6.1808,-6.1842,-6.1893,-6.1934,-6.2016,-6.2037,-6.2083,-6.2079,-6.2128,-6.2086,-6.2085,-6.2082,-6.2079,-6.2084,-6.2136,-6.2137,-6.2138,-6.2139,0,-6.1594,-6.1602,-6.1648,-6.1699,-6.1737,-6.1777,-6.1815,-6.184,-6.1856,-6.1893,-6.1947,-6.1979,-6.2043,-6.2093,-6.214,-6.216,-6.2153,-6.2153,-6.2166,-6.2166,-6.2161,-6.2166,-6.202,-6.2149,-6.2148,-6.2147,-6.2147,-6.2146,-6.1667,-6.1708,-6.1749,-6.1801,-6.1832,-6.1868,-6.1908,-6.193,-6.1976,-6.203,-6.2033,-6.2092,-6.2128,-6.2191,-6.2215,-6.226,-6.2245,-6.2263,-6.2268,-6.2273,-6.2278,-6.2154,-6.2268,-6.2268,-6.2267,-6.2267,-6.2267,0,-6.1772,-6.1799,-6.1847,-6.1902,-6.1944,-6.1936,-6.1978,-6.2013,-6.2065,-6.2101,-6.2143,-6.2205,-6.2255,-6.2281,-6.233,-6.2362,-6.236,-6.2374,-6.2372,-6.2377,-6.2288,-6.2272,-6.2375,-6.2375,-6.2375,-6.2375,-6.2375,-6.2375,-6.1831,-6.1901,-6.1914,-6.1999,-6.2025,-6.2085,-6.211,-6.2143,-6.2172,-6.2243,-6.2286,-6.2303,-6.2335,-6.2387,-6.2433,-6.2439,-6.2457,-6.2474,-6.2479,-6.2394,-6.2383,-6.2373,-6.2358,-6.2478,-6.2478,-6.2565,-6.2566,-6.2566]}]]